User: anonymous   Login
Location: Kelshall
(52.0000°N, 0.0500°W)
Time: 21:04:26
(UTC+00:00)
Language:

Meteor 1-15 Rocket - Orbit

View from above orbital plane
View from above orbital plane
View from above satellite
View from above satellite

Ground track
Ground track

The orbit data is extracted from the following two-line orbital elements,

1  6660U 73034B   21134.88834246  .00000061  00000-0  29030-4 0  9994
2  6660  81.2325  63.4598 0047878  39.1120 321.3493 14.05861052458998
Epoch (UTC): 14 May 2021 21:19:12
Eccentricity: 0.0047878
inclination: 81.2325°
perigee height: 839 km
apogee height: 908 km
right ascension of ascending node: 63.4598°
argument of perigee: 39.1120°
revolutions per day: 14.05861052
mean anomaly at epoch: 321.3493°
orbit number at epoch: 45899

The dashed part of the orbit path shows where the satellite is in the earth's shadow,  

DLR